Date String (YYYY-MM-DD hh:mm:ss) UTC,Instrument flags,absolute air pressure of the measurement (hPa),sample flow rate (lpm),inlet stack bypass flow (lpm),air temperature of the measurement (°C),ambient temperature measured by the external sensor (°C),aerosol sample conditioner tube jacket temperature (°C),OPC LED temperature (°C),internal box temperature (°C),relative humidity of the measurement (%),span deviation,mass concentration of particles derived from Lorenz-Mie calculation of OPC scattering (μg/m³),mass concentration of particles derived from Lorenz-Mie calculation of OPC scattering (μg/m³),mass concentration of particles derived from Lorenz-Mie calculation of OPC scattering (μg/m³)
DateTimeUTC,F1_M11,P_M11,Q1_M11,Q2_M11,T1_M11,T2_M11,T3_M11,T4_M11,T5_M11,U1_M11,ZSPAN_M11,X0_M11,X2_M11,X1_M11
2023-10-17 01:00:00,SystemResetWarning,0834.9,5.00,000.00,028.2,026.8,000.0,036.7,030.0,14.7,0000.0,0010.87,0003.75,0002.45
2023-10-17 01:01:00,SystemResetWarning,0835.1,5.00,000.00,028.2,026.9,000.0,036.7,030.0,14.7,0000.0,0010.64,0003.73,0002.46
2023-10-17 01:02:00,SystemResetWarning,0835.1,5.00,000.00,028.3,027.1,000.0,036.7,030.1,14.6,0000.0,0011.02,0003.77,0002.48
2023-10-17 01:03:00,SystemResetWarning,0834.7,5.00,000.00,028.3,027.2,000.0,036.7,030.1,14.6,0000.0,0011.17,0003.73,0002.49
2023-10-17 01:04:00,SystemResetWarning,0834.5,5.00,000.00,028.4,027.3,000.0,036.7,030.2,14.6,0000.0,0010.97,0003.70,0002.50
2023-10-17 01:05:00,SystemResetWarning,0834.5,4.99,000.00,028.4,027.4,000.0,036.8,030.2,14.6,0000.0,0011.12,0003.67,0002.52
2023-10-17 01:06:00,SystemResetWarning,0834.5,5.01,000.00,028.5,027.4,000.0,036.8,030.3,14.5,0000.0,0011.42,0003.70,0002.53
2023-10-17 01:07:00,SystemResetWarning,0834.5,4.99,000.00,028.5,027.5,000.0,036.8,030.3,14.5,0000.0,0012.44,0003.74,0002.54
2023-10-17 01:08:00,SystemResetWarning,0834.7,4.99,000.00,028.5,027.6,000.0,036.8,030.4,14.5,0000.0,0013.09,0003.76,0002.56
2023-10-17 01:09:00,SystemResetWarning,0835.1,5.02,000.00,028.6,027.6,000.0,036.9,030.4,14.4,0000.0,0013.30,0003.77,0002.57
2023-10-17 01:10:00,SystemResetWarning,0834.7,4.98,000.00,028.6,026.4,000.0,036.9,030.4,14.4,0000.0,0013.62,0003.71,0002.59
2023-10-17 01:11:00,SystemResetWarning,0834.5,5.00,000.00,028.5,024.7,000.0,036.8,030.1,14.4,0000.0,0014.80,0003.76,0002.59
2023-10-17 01:12:00,SystemResetWarning,0834.5,5.01,000.00,028.4,024.5,000.0,036.8,030.0,14.5,0000.0,0015.25,0003.83,0002.61
2023-10-17 01:13:00,SystemResetWarning,0834.5,4.99,000.00,028.3,024.7,000.0,036.8,029.8,14.6,0000.0,0016.19,0003.83,0002.62
2023-10-17 01:14:00,SystemResetWarning,0834.5,5.00,000.00,028.3,025.1,000.0,036.8,029.8,14.7,0000.0,0015.31,0003.86,0002.63
2023-10-17 01:15:00,SystemResetWarning,0834.5,5.01,000.00,028.2,025.5,000.0,036.8,029.8,14.7,0000.0,0015.61,0003.92,0002.65
2023-10-17 01:16:00,SystemResetWarning,0834.5,5.01,000.00,028.2,025.8,000.0,036.8,029.9,14.7,0000.0,0015.36,0003.95,0002.64
2023-10-17 01:17:00,SystemResetWarning,0834.5,5.00,000.00,028.2,026.1,000.0,036.8,029.9,14.8,0000.0,0015.18,0003.95,0002.64
2023-10-17 01:18:00,SystemResetWarning,0834.5,5.00,000.00,028.2,026.4,000.0,036.8,030.0,14.8,0000.0,0014.22,0003.88,0002.65
2023-10-17 01:19:00,SystemResetWarning,0834.5,5.00,000.00,028.3,026.6,000.0,036.8,030.0,14.8,0000.0,0013.26,0003.87,0002.64
2023-10-17 01:20:00,SystemResetWarning,0834.5,5.00,000.00,028.3,026.8,000.0,036.8,030.1,14.7,0000.0,0013.89,0003.87,0002.64
2023-10-17 01:21:00,SystemResetWarning,0834.9,5.00,000.00,028.3,026.9,000.0,036.8,030.1,14.6,0000.0,0015.14,0003.92,0002.65
2023-10-17 01:22:00,SystemResetWarning,0835.0,5.00,000.00,028.4,027.0,000.0,036.8,030.1,14.7,0000.0,0014.37,0003.93,0002.67
2023-10-17 01:23:00,SystemResetWarning,0835.0,5.00,000.00,028.4,027.2,000.0,036.8,030.2,14.6,0000.0,0013.15,0003.88,0002.67
2023-10-17 01:24:00,SystemResetWarning,0835.1,5.00,000.00,028.4,027.2,000.0,036.8,030.2,14.7,0000.0,0011.92,0003.83,0002.66
2023-10-17 01:25:00,SystemResetWarning,0835.1,5.00,000.00,028.5,027.3,000.0,036.8,030.3,14.6,0000.0,0011.77,0003.78,0002.66
2023-10-17 01:26:00,SystemResetWarning,0835.1,5.00,000.00,028.5,027.4,000.0,036.8,030.3,14.6,0000.0,0012.51,0003.76,0002.66
2023-10-17 01:27:00,SystemResetWarning,0835.0,5.00,000.00,028.5,027.4,000.0,036.9,030.3,14.6,0000.0,0012.40,0003.78,0002.68
2023-10-17 01:28:00,SystemResetWarning,0835.1,5.00,000.00,028.6,027.5,000.0,036.9,030.4,14.5,0000.0,0014.05,0003.80,0002.69
2023-10-17 01:29:00,SystemResetWarning,0835.1,5.00,000.00,028.6,027.4,000.0,036.9,030.4,14.5,0000.0,0015.15,0003.81,0002.69
2023-10-17 01:30:00,SystemResetWarning,0835.1,4.98,000.00,028.6,025.8,000.0,036.9,030.3,14.5,0000.0,0015.72,0003.77,0002.66
2023-10-17 01:31:00,SystemResetWarning,0834.8,5.01,000.00,028.5,024.5,000.0,036.8,030.1,14.6,0000.0,0015.84,0003.75,0002.65
2023-10-17 01:32:00,SystemResetWarning,0834.5,5.01,000.00,028.4,024.4,000.0,036.8,029.9,14.6,0000.0,0015.29,0003.70,0002.65
2023-10-17 01:33:00,SystemResetWarning,0834.5,5.00,000.00,028.3,024.7,000.0,036.8,029.7,14.8,0000.0,0015.08,0003.68,0002.63
2023-10-17 01:34:00,SystemResetWarning,0834.6,5.00,000.00,028.2,025.1,000.0,036.8,029.8,14.8,0000.0,0015.31,0003.73,0002.64
2023-10-17 01:35:00,SystemResetWarning,0835.0,5.00,000.00,028.2,025.5,000.0,036.8,029.8,14.8,0000.0,0016.41,0003.73,0002.64
2023-10-17 01:36:00,SystemResetWarning,0834.7,5.00,000.00,028.2,025.8,000.0,036.8,029.9,14.8,0000.0,0017.04,0003.74,0002.65
2023-10-17 01:37:00,SystemResetWarning,0835.0,5.00,000.00,028.2,026.1,000.0,036.8,029.9,14.9,0000.0,0017.01,0003.72,0002.65
2023-10-17 01:38:00,SystemResetWarning,0834.9,5.00,000.00,028.2,026.4,000.0,036.8,030.0,14.8,0000.0,0017.30,0003.68,0002.62
2023-10-17 01:39:00,SystemResetWarning,0835.1,5.00,000.00,028.3,026.6,000.0,036.8,030.0,14.8,0000.0,0016.93,0003.68,0002.63
2023-10-17 01:40:00,SystemResetWarning,0835.0,5.00,000.00,028.3,026.7,000.0,036.8,030.1,14.8,0000.0,0015.81,0003.70,0002.62
2023-10-17 01:41:00,SystemResetWarning,0835.0,5.00,000.00,028.3,026.9,000.0,036.8,030.1,14.8,0000.0,0015.68,0003.73,0002.63
2023-10-17 01:42:00,SystemResetWarning,0835.1,5.00,000.00,028.3,027.0,000.0,036.8,030.1,14.8,0000.0,0015.75,0003.77,0002.63
2023-10-17 01:43:00,SystemResetWarning,0835.1,5.00,000.00,028.4,027.1,000.0,036.8,030.2,14.8,0000.0,0014.70,0003.75,0002.63
2023-10-17 01:44:00,SystemResetWarning,0835.1,5.00,000.00,028.4,027.2,000.0,036.8,030.2,14.7,0000.0,0014.51,0003.74,0002.63
2023-10-17 01:45:00,SystemResetWarning,0834.9,5.00,000.00,028.4,027.2,000.0,036.8,030.2,14.7,0000.0,0014.40,0003.70,0002.63
2023-10-17 01:46:00,SystemResetWarning,0834.6,5.00,000.00,028.5,027.3,000.0,036.9,030.2,14.7,0000.0,0013.74,0003.71,0002.62
2023-10-17 01:47:00,SystemResetWarning,0834.5,5.00,000.00,028.5,027.3,000.0,036.9,030.3,14.7,0000.0,0013.13,0003.70,0002.62
2023-10-17 01:48:00,SystemResetWarning,0834.5,5.00,000.00,028.5,027.4,000.0,036.9,030.3,14.6,0000.0,0012.81,0003.72,0002.61
2023-10-17 01:49:00,SystemResetWarning,0834.5,5.00,000.00,028.6,027.4,000.0,036.9,030.3,14.6,0000.0,0013.07,0003.69,0002.60
2023-10-17 01:50:00,SystemResetWarning,0834.6,4.99,000.00,028.6,027.5,000.0,036.9,030.4,14.6,0000.0,0012.77,0003.66,0002.59
2023-10-17 01:51:00,SystemResetWarning,0834.5,4.98,000.00,028.6,027.3,000.0,036.9,030.4,14.5,0000.0,0012.84,0003.60,0002.56
2023-10-17 01:52:00,SystemResetWarning,0834.5,5.01,000.00,028.6,025.5,000.0,036.9,030.2,14.6,0000.0,0012.97,0003.58,0002.55
2023-10-17 01:53:00,SystemResetWarning,0834.5,5.00,000.00,028.5,024.4,000.0,036.8,030.0,14.6,0000.0,0013.11,0003.57,0002.54
2023-10-17 01:54:00,SystemResetWarning,0834.5,5.01,000.00,028.4,024.4,000.0,036.8,029.9,14.7,0000.0,0013.06,0003.56,0002.53
2023-10-17 01:55:00,SystemResetWarning,0834.5,5.01,000.00,028.3,024.7,000.0,036.8,029.7,14.8,0000.0,0013.18,0003.51,0002.52
2023-10-17 01:56:00,SystemResetWarning,0834.5,5.00,000.00,028.2,025.1,000.0,036.8,029.8,14.8,0000.0,0013.27,0003.52,0002.52
2023-10-17 01:57:00,SystemResetWarning,0834.5,5.01,000.00,028.2,025.4,000.0,036.8,029.8,14.9,0000.0,0013.08,0003.53,0002.51
2023-10-17 01:58:00,SystemResetWarning,0834.5,5.00,000.00,028.2,025.8,000.0,036.8,029.9,14.9,0000.0,0013.62,0003.55,0002.50
2023-10-17 01:59:00,SystemResetWarning,0834.5,5.00,000.00,028.2,026.1,000.0,036.8,029.9,14.9,0000.0,0013.88,0003.56,0002.49
